Location: Betzi
(47.2343°N, 9.5260°E)
Time: 22:57:11
(UTC+00:00)

DNEPR-1 R/B - Pass Details

Date: 27 May 2022
Orbit: 577 x 1345 km, 64.6° (Epoch: 29 June)

Event Time Altitude Azimuth Distance (km) Brightness Sun altitude
Exits shadow 02:08:47 13° 189° (S) 1,722 5.3 -11.6°
Maximum altitude 02:12:19 44° 119° (ESE) 848 4.3 -11.2°
Drops below altitude 10° 02:16:42 10° 48° (NE) 2,092 7.8 -10.7°
Sets 02:19:15 0° 42° (NE) 3,108 9.5 -10.4°
